Location: Eckley Miners' Village
(40.9930°N, 75.8630°W)
Time: 23:52:31
(UTC-04:00)

Vanguard 1 Rocket - Pass Details

Date: 23 March 2026
Orbit: 654 x 4213 km, 34.3° (Epoch: 20 April)

Event Time Altitude Azimuth Distance (km) Brightness Sun altitude
Exits shadow 04:13:51 26° 173° (S) 2,827 9.6 -30.8°
Maximum altitude 04:15:10 27° 161° (SSE) 2,640 9.5 -30.6°
Drops below altitude 10° 04:21:12 10° 106° (ESE) 2,977 10.5 -29.7°
Sets 04:23:46 0° 93° (E) 3,636 11.3 -29.2°
